DLH8264 SUMU-SAEZ

Flight info

Callsign DLH8264
Flight time 0h 26m
Altitude 16000
Route UGIMI
Aircraft B77L/M-V/N

Departure

Time 2026-05-08 17:39
Airport Carrasco General Cesáreo L. Berisso International Airport (SUMU)

Arrival

Time 2026-05-08 18:05
Airport Ezeiza International Airport - Ministro Pistarini (SAEZ)
Time Latitude Longitude Altitude Speed Heading
2026-05-08 17:25 -34.83880 -56.02545 82 ft 0 kts 358°
2026-05-08 17:34 -34.83893 -56.02546 84 ft 3 kts 26°
2026-05-08 17:34 -34.83908 -56.02559 85 ft 3 kts 66°
2026-05-08 17:34 -34.83911 -56.02573 85 ft 0 kts 89°
2026-05-08 17:36 -34.83918 -56.02474 85 ft 20 kts 107°
2026-05-08 17:36 -34.83956 -56.02324 86 ft 18 kts 90°
2026-05-08 17:36 -34.83878 -56.02243 90 ft 17 kts
2026-05-08 17:36 -34.83767 -56.02204 91 ft 17 kts 45°
2026-05-08 17:37 -34.83692 -56.02088 95 ft 17 kts 54°
2026-05-08 17:37 -34.83613 -56.01955 96 ft 23 kts 54°
2026-05-08 17:37 -34.83499 -56.01764 103 ft 32 kts 54°
2026-05-08 17:37 -34.83369 -56.01772 103 ft 23 kts 313°
2026-05-08 17:38 -34.83253 -56.01928 100 ft 28 kts 311°
2026-05-08 17:38 -34.83199 -56.02013 97 ft 4 kts 270°
2026-05-08 17:38 -34.83361 -56.02302 93 ft 96 kts 232°
2026-05-08 17:38 -34.83978 -56.03266 406 ft 169 kts 236°
2026-05-08 17:39 -34.84667 -56.04319 2010 ft 161 kts 245°
2026-05-08 17:39 -34.84994 -56.05699 2458 ft 183 kts 262°
2026-05-08 17:39 -34.85252 -56.07363 2750 ft 216 kts 260°
2026-05-08 17:39 -34.85569 -56.09300 3049 ft 251 kts 259°
2026-05-08 17:40 -34.85927 -56.11498 3390 ft 284 kts 261°
2026-05-08 17:40 -34.86334 -56.13938 4125 ft 300 kts 259°
2026-05-08 17:40 -34.86751 -56.16467 5116 ft 308 kts 260°
2026-05-08 17:40 -34.87169 -56.19063 6145 ft 315 kts 259°
2026-05-08 17:41 -34.87599 -56.21708 7129 ft 320 kts 259°
2026-05-08 17:41 -34.88038 -56.24401 8108 ft 327 kts 259°
2026-05-08 17:41 -34.88481 -56.27115 9067 ft 333 kts 259°
2026-05-08 17:41 -34.88935 -56.29909 9986 ft 339 kts 258°
2026-05-08 17:42 -34.89395 -56.32748 10980 ft 341 kts 258°
2026-05-08 17:42 -34.89859 -56.35606 11927 ft 345 kts 258°
2026-05-08 17:42 -34.90325 -56.38479 13011 ft 345 kts 259°
2026-05-08 17:42 -34.90789 -56.41355 13737 ft 354 kts 259°
2026-05-08 17:43 -34.91267 -56.44316 14562 ft 360 kts 259°
2026-05-08 17:43 -34.91757 -56.47360 15260 ft 366 kts 259°
2026-05-08 17:43 -34.92246 -56.50406 15661 ft 366 kts 259°
2026-05-08 17:43 -34.92745 -56.53522 15666 ft 380 kts 259°
2026-05-08 17:44 -34.93244 -56.56642 15660 ft 380 kts 259°
2026-05-08 17:44 -34.93753 -56.59823 15663 ft 383 kts 259°
2026-05-08 17:44 -34.94271 -56.63076 15677 ft 392 kts 259°
2026-05-08 17:44 -34.94781 -56.66270 15683 ft 384 kts 259°
2026-05-08 17:45 -34.95286 -56.69448 15677 ft 375 kts 259°
2026-05-08 17:45 -34.95781 -56.72570 15671 ft 383 kts 259°
2026-05-08 17:45 -34.96289 -56.75779 15673 ft 387 kts 259°
2026-05-08 17:45 -34.96803 -56.79022 15682 ft 387 kts 259°
2026-05-08 17:46 -34.97304 -56.82194 15665 ft 383 kts 259°
2026-05-08 17:46 -34.97801 -56.85360 15683 ft 376 kts 259°
2026-05-08 17:46 -34.98185 -56.88502 15683 ft 385 kts 264°
2026-05-08 17:46 -34.98311 -56.91792 15672 ft 388 kts 270°
2026-05-08 17:47 -34.98267 -56.95109 15675 ft 389 kts 270°
2026-05-08 17:47 -34.98240 -56.98362 15675 ft 383 kts 269°
2026-05-08 17:47 -34.98224 -57.01616 15678 ft 385 kts 269°
2026-05-08 17:47 -34.98215 -57.03772 15693 ft 380 kts 269°
2026-05-08 17:48 -34.98184 -57.08054 15675 ft 383 kts 270°
2026-05-08 17:48 -34.97942 -57.11341 15678 ft 393 kts 276°
2026-05-08 17:48 -34.97573 -57.14659 15682 ft 389 kts 276°
2026-05-08 17:48 -34.97227 -57.17880 15689 ft 387 kts 275°
2026-05-08 17:49 -34.96886 -57.21109 15681 ft 380 kts 276°
2026-05-08 17:49 -34.96550 -57.24349 15689 ft 389 kts 275°
2026-05-08 17:49 -34.96212 -57.27598 15677 ft 391 kts 276°
2026-05-08 17:49 -34.95868 -57.30896 15683 ft 389 kts 276°
2026-05-08 17:50 -34.95528 -57.34138 15688 ft 385 kts 275°
2026-05-08 17:50 -34.95185 -57.37409 15686 ft 386 kts 275°
2026-05-08 17:50 -34.94848 -57.40609 15677 ft 383 kts 275°
2026-05-08 17:50 -34.94505 -57.43866 15689 ft 383 kts 275°
2026-05-08 17:51 -34.94169 -57.47049 15299 ft 382 kts 276°
2026-05-08 17:51 -34.93827 -57.50279 14831 ft 378 kts 276°
2026-05-08 17:51 -34.93493 -57.53416 14352 ft 372 kts 275°
2026-05-08 17:51 -34.93159 -57.56541 13725 ft 369 kts 274°
2026-05-08 17:52 -34.92833 -57.59592 13084 ft 366 kts 274°
2026-05-08 17:52 -34.92505 -57.62653 12502 ft 361 kts 274°
2026-05-08 17:52 -34.91860 -57.68675 11331 ft 353 kts 275°
2026-05-08 17:53 -34.91544 -57.71602 10786 ft 349 kts 275°
2026-05-08 17:53 -34.91228 -57.74526 10242 ft 344 kts 275°
2026-05-08 17:53 -34.90919 -57.77371 9722 ft 340 kts 275°
2026-05-08 17:53 -34.90681 -57.79568 9291 ft 337 kts 275°
2026-05-08 17:54 -34.90376 -57.82378 8734 ft 333 kts 275°
2026-05-08 17:54 -34.90071 -57.85172 8212 ft 329 kts 275°
2026-05-08 17:54 -34.89774 -57.87898 7705 ft 325 kts 275°
2026-05-08 17:54 -34.89474 -57.90639 7211 ft 321 kts 275°
2026-05-08 17:55 -34.89183 -57.93294 6729 ft 317 kts 275°
2026-05-08 17:55 -34.88890 -57.95955 6243 ft 314 kts 275°
2026-05-08 17:55 -34.88602 -57.98579 5749 ft 310 kts 275°
2026-05-08 17:55 -34.88319 -58.01151 5280 ft 306 kts 275°
2026-05-08 17:56 -34.88038 -58.03703 4813 ft 303 kts 275°
2026-05-08 17:56 -34.87756 -58.06240 4347 ft 300 kts 275°
2026-05-08 17:56 -34.87482 -58.08691 4192 ft 286 kts 275°
2026-05-08 17:56 -34.87219 -58.11041 4053 ft 273 kts 274°
2026-05-08 17:57 -34.86971 -58.13257 3937 ft 259 kts 275°
2026-05-08 17:57 -34.86733 -58.15382 3841 ft 246 kts 274°
2026-05-08 17:57 -34.86511 -58.17376 3711 ft 233 kts 274°
2026-05-08 17:57 -34.86298 -58.19273 3635 ft 219 kts 274°
2026-05-08 17:58 -34.86098 -58.21071 3535 ft 207 kts 274°
2026-05-08 17:58 -34.85911 -58.22742 3450 ft 193 kts 275°
2026-05-08 17:58 -34.85738 -58.24285 3379 ft 178 kts 275°
2026-05-08 17:58 -34.85579 -58.25696 3409 ft 158 kts 274°
2026-05-08 17:59 -34.85437 -58.26968 3437 ft 150 kts 274°
2026-05-08 17:59 -34.85296 -58.28240 3444 ft 151 kts 274°
2026-05-08 17:59 -34.85155 -58.29509 3447 ft 153 kts 274°
2026-05-08 17:59 -34.85009 -58.30817 3323 ft 157 kts 274°
2026-05-08 18:00 -34.84864 -58.32092 3177 ft 148 kts 275°
2026-05-08 18:00 -34.84585 -58.34557 2828 ft 147 kts 275°
2026-05-08 18:00 -34.84446 -58.35779 2636 ft 148 kts 275°
2026-05-08 18:01 -34.84306 -58.37017 2453 ft 148 kts 275°
2026-05-08 18:01 -34.84204 -58.38258 2253 ft 144 kts 270°
2026-05-08 18:01 -34.84216 -58.39435 2124 ft 132 kts 266°
2026-05-08 18:01 -34.84250 -58.40484 1963 ft 119 kts 266°
2026-05-08 18:02 -34.84249 -58.41470 1741 ft 115 kts 270°
2026-05-08 18:02 -34.84202 -58.42114 1579 ft 115 kts 276°
2026-05-08 18:02 -34.84008 -58.43374 1367 ft 116 kts 277°
2026-05-08 18:02 -34.83854 -58.44335 1273 ft 115 kts 278°
2026-05-08 18:03 -34.83686 -58.45300 1157 ft 118 kts 278°
2026-05-08 18:03 -34.83521 -58.46262 1073 ft 118 kts 279°
2026-05-08 18:03 -34.83341 -58.47250 932 ft 121 kts 279°
2026-05-08 18:03 -34.83163 -58.48267 734 ft 123 kts 278°
2026-05-08 18:04 -34.82978 -58.49279 579 ft 121 kts 280°
2026-05-08 18:04 -34.82819 -58.50256 403 ft 116 kts 279°
2026-05-08 18:04 -34.82643 -58.51228 239 ft 119 kts 280°
2026-05-08 18:04 -34.82468 -58.52207 105 ft 113 kts 282°
2026-05-08 18:05 -34.82323 -58.53023 89 ft 82 kts 282°
2026-05-08 18:05 -34.82246 -58.53406 90 ft 35 kts 303°
2026-05-08 18:05 -34.82047 -58.53548 83 ft 32 kts 335°
2026-05-08 18:05 -34.81857 -58.53660 85 ft 30 kts 333°
2026-05-08 18:06 -34.81665 -58.53753 83 ft 30 kts
2026-05-08 18:06 -34.81480 -58.53642 81 ft 30 kts 30°
2026-05-08 18:06 -34.81280 -58.53587 83 ft 30 kts 350°
2026-05-08 18:06 -34.81073 -58.53598 81 ft 30 kts
2026-05-08 18:07 -34.80883 -58.53631 84 ft 19 kts 334°
2026-05-08 18:07 -34.80880 -58.53715 81 ft 14 kts 252°
2026-05-08 18:07 -34.80888 -58.53745 84 ft 0 kts 252°